Regional Weather Roundup
Issued by NWS Portland, ME

Home | Current Version | Previous Version | Text Only | Print | Product List | Glossary On
Versions: 1 2 3 4 5 6 7 8 9 10 11 12 13 14 15 16 17 18 19 20 21 22 23 24 25 26 27 28 29 30 31 32 33 34 35 36 37 38 39 40 41 42 43 44 45 46 47 48 49 50
000
ASUS41 KGYX 190710
RWRGYX
WEATHER ROUNDUP FOR MAINE AND NEW HAMPSHIRE
NATIONAL WEATHER SERVICE GRAY ME
200 AM EST FRI DEC 19 2014

MEZ002-005-006-010-012-015-018-020-021-024-026-027-029-190800-
MAINE

CITY           SKY/WX    TMP DP  RH WIND       PRES   REMARKS
PORTLAND       PTCLDY    32  23  69 NW6       29.83R
SANFORD        CLEAR     30  21  69 NW6       29.82S
BAR HARBOR     CLOUDY    30  28  93 NW7       29.75S
WISCASSET      CLEAR     31  23  72 W3        29.82R
ROCKLAND       CLEAR     30  23  74 W6        29.79R
FRYEBURG       MOCLDY    27  21  78 E3        29.81R
LEWISTONAUBURN MOCLDY    30  21  69 W5        29.80R
AUGUSTA        MOCLDY    29  21  72 NW7       29.79R
WATERVILLE     PTCLDY    28  19  69 NW5       29.76S
BANGOR         PTCLDY    29  24  82 W7        29.76R
GREENVILLE       N/A     23  20  88 NW15G30   29.66F WCI  10
MILLINOCKET    MOCLDY    28  23  81 N9        29.74R
HOULTON        CLOUDY    25  20  81 NW10      29.69R WCI  15
PRESQUE ISLE   CLOUDY    25  18  74 NW12      29.71R WCI  14
FRENCHVILLE    CLOUDY    21  19  92 N17       29.68R WCI   7
CARIBOU        CLOUDY    24  20  84 NW13G20   29.70R WCI  12
$$

NHZ002-005-008-009-011-012-014-190800-
NEW HAMPSHIRE

CITY           SKY/WX    TMP DP  RH WIND       PRES   REMARKS
PORTSMOUTH     PTCLDY    32  23  70 W6        29.84R
ROCHESTER      CLEAR     31  22  69 NW8       29.82R
NASHUA         PTCLDY    33  26  76 NW6       29.88R
MANCHESTER     PTCLDY    33  22  63 NW12      29.85R
CONCORD        CLOUDY    31  23  72 NW12      29.86S
PLYMOUTH       CLOUDY    31  28  88 W12       29.85R
BERLIN         CLOUDY    28  21  75 CALM      29.80S
WHITEFIELD     CLOUDY    28  24  85 W5        29.84R
JAFFREY        CLOUDY    31  23  72 NW7       29.85R
KEENE          CLOUDY    34  25  69 N5        29.88S
LEBANON        CLOUDY    30  22  72 NW6       29.88R
MT WASHINGTON  FOG        7   7 100 NW38G51     N/A  VSB 1/16WCI -19
$$

VTZ005-007-008-190800-
VERMONT

CITY           SKY/WX    TMP DP  RH WIND       PRES   REMARKS
ST JOHNSBURY     N/A     30  23  75 MISG      29.85S
MONTPELIER     CLOUDY    24  21  88 NW9       29.90R
BURLINGTON     FLURRIES  29  21  72 NW10      29.94R WCI  20
$$

MAZ007-012-024-CTZ003-RIZ002-NYZ038-NYZ072-190800-
SOUTHERN NEW ENGLAND AND NY

CITY           SKY/WX    TMP DP  RH WIND       PRES   REMARKS
BOSTON         CLOUDY    37  25  61 W14       29.87R
WORCESTER      CLOUDY    31  25  78 W8        29.85R
NANTUCKET      PTCLDY    36  28  73 NW8       29.86S
PROVIDENCE     CLOUDY    35  26  69 NW8       29.89S
HARTFORD       CLOUDY    35  24  64 NW8       29.92R
ALBANY         CLOUDY    32  24  72 W13       29.96R
NEW YORK CITY  CLOUDY    38  27  64 NW13      29.96S
$$

ANZ081-ANZ082-ANZ150-NHZ014-MEZ023>029-190800-
COASTAL MARINE OBSERVATIONS

STATION/POSITION TIME  TEMP    WIND        PRES    WAVE
                       AIR SEA DIR/SP/G            HT/PER
                 (UTC) (F)     (DEG/KT/KT) (MB)    (FT/S)
MOUNT DESERT ROC 0700   34                 1006.8R
MATINICUS ROCK   0700          320/ 25/ 28 1008.1R
PORTLAND WX BUOY 0650   36 44  330/ 14/ 17 1009.8R   1/12
WELLS            0600   33 41  330/  5/  7 1009.0R
ISLE OF SHOALS   0700   34     300/ 16/ 19 1009.8R
JEFFREYS LEDGE   0621      49                N/A     5/ 5
CASHES LEDGE BUO 0650   38 48  320/ 19/ 23 1008.4R   6/ 6
$$

.............KEY..............
   WCI - WIND CHILL
   TC  - TEMPERATURE IN CELSIUS
   VSB - VISIBILITY IN MILES
   HX  - HEAT INDEX
   FAIR- INDICATES FEW OR NO CLOUDS BELOW 12,000 FT, WITH NO
         SIGNIFICANT WEATHER AND/OR OBSTRUCTIONS TO VISIBILITY.





USA.gov is the U.S. government's official web portal to all federal, state and local government web resources and services.